Location: Aulus
(42.7909°N, 1.3399°E)
Time: 13:06:44
(UTC+00:00)

deb Kosmos- 1980 - Pass Details

Date: 19 October 2025
Orbit: 834 x 854 km, 71.0° (Epoch: 16 November)

Event Time Altitude Azimuth Distance (km) Brightness Sun altitude
Rises 19:11:15 0° 340° (NNW) 3,400 ? -23.7°
Reaches altitude 10° 19:13:49 10° 347° (NNW) 2,460 ? -24.2°
Enters shadow 19:18:20 42° 34° (NNE) 1,188 ? -25.0°
